Amateur Radio Satellites - All Passes

Search period start: 23 May 2013 22:23
Search period end: 24 May 2013 22:23
Location: Cypress Hills Dark-Sky Preserve - CHICO, 49.6176°N, 110.2634°W

Satellite Date Start Highest point End Downlink Frequencies (MHz)
Time Altitude Azimuth
HO-68 23 May 22:32:29 22:39:20 49° 260° (W) 22:46:14 435.675 MHz FM
JAS-1B 23 May 22:36:01 22:40:14 14° 277° (W) 22:44:12 435.800 - 435.900 CW/SSB
Oscar 11 23 May 22:40:49 22:45:01 51° 260° (W) 22:49:16 145.825 FM, Beacon 2401.500 USB
OPAL 23 May 23:39:47 23:44:18 30° 263° (W) 23:48:48 ?
AO-40 23 May 23:49:06 04:57:33 32° 167° (SSE) 08:30:15 Beacon 2401.320
RS-15 23 May 23:50:04 00:01:05 51° 30° (NNE) 00:11:39 29.354 - 29.394 USB, Beacon 29.352 USB
JAS-2 23 May 23:54:45 00:00:48 24° 274° (W) 00:06:53 435.800 - 435.900 CW/SSB, 435.910 FM
KITSAT 1 24 May 00:09:49 00:17:54 84° 125° (SE) 00:26:04 435.175 FM
MaSat-1 24 May 00:52:24 00:55:52 15° 103° (ESE) 00:59:02 437.345 MHz
RS-15 24 May 02:03:06 02:14:12 72° 238° (WSW) 02:24:58 29.354 - 29.394 USB, Beacon 29.352 USB
KITSAT 1 24 May 02:06:48 02:14:12 37° 330° (NNW) 02:21:40 435.175 FM
Oscar 16 24 May 02:10:15 02:14:12 22° 91° (E) 02:18:06 437.025 USB, Beacon 2401.1428
AO-27 24 May 02:22:23 02:26:15 21° 90° (E) 02:30:06 436.795 MHz FM
ITAMSAT 1 24 May 02:28:33 02:32:38 23° 91° (E) 02:36:42 435.822 SSB
MaSat-1 24 May 02:30:41 02:37:28 71° 118° (ESE) 02:42:53 437.345 MHz
AO-Echo 24 May 03:03:24 03:06:19 16° 89° (E) 03:09:16 ?
Uribyol 2 24 May 03:08:40 03:13:46 49° 100° (E) 03:18:50 436.500 FM
Oscar 19 24 May 03:09:10 03:14:17 57° 101° (E) 03:19:20 437.125 CW, 437.150 USB
ISS 24 May 03:39:41 03:42:48 39° 149° (SSE) 03:45:57 145.800 FM
Oscar 16 24 May 03:48:52 03:54:00 62° 290° (WNW) 03:59:05 437.025 USB, Beacon 2401.1428
AO-27 24 May 04:01:04 04:06:16 66° 289° (WNW) 04:11:26 436.795 MHz FM
KITSAT 1 24 May 04:05:45 04:12:11 25° 358° (N) 04:18:37 435.175 FM
ITAMSAT 1 24 May 04:07:24 04:12:33 60° 290° (WNW) 04:17:41 435.822 SSB
TMSAT-1 24 May 04:11:29 04:15:09 19° 89° (E) 04:18:47 436.925 FM
MaSat-1 24 May 04:14:27 04:19:55 29° 314° (NW) 04:24:25 437.345 MHz
RS-15 24 May 04:17:18 04:24:23 20° 262° (W) 04:31:23 29.354 - 29.394 USB, Beacon 29.352 USB
Gurwin Techsat 1B 24 May 04:33:21 04:38:20 39° 97° (E) 04:43:17 435.225 FM
Uosat F 24 May 04:34:55 04:39:46 46° 99° (E) 04:44:35 435.120 FM
AO-Echo 24 May 04:40:56 04:45:40 73° 287° (WNW) 04:50:29 ?
Uribyol 2 24 May 04:48:36 04:53:03 29° 299° (WNW) 04:57:30 436.500 FM
Oscar 19 24 May 04:49:09 04:53:19 25° 300° (WNW) 04:57:28 437.125 CW, 437.150 USB
ISS 24 May 05:16:06 05:19:26 70° 349° (NNW) 05:22:47 145.800 FM
STRAND 1 24 May 05:17:29 05:21:02 20° 57° (ENE) 05:24:37 ?
Saudisat 1A 24 May 05:26:03 05:29:26 21° 114° (ESE) 05:32:50 436.775 MHz
Oscar 16 24 May 05:30:27 05:32:23 12° 310° (NW) 05:34:18 437.025 USB, Beacon 2401.1428
Oscar 10/S400 24 May 05:35:27 09:33:16 57° 218° (SW) 15:46:00 145.825 - 145.975 CW/USB, Beacon 145.810 USB
AO-27 24 May 05:42:34 05:44:52 13° 309° (NW) 05:47:09 436.795 MHz FM
ITAMSAT 1 24 May 05:49:11 05:51:03 12° 310° (NW) 05:52:56 435.822 SSB
TMSAT-1 24 May 05:50:21 05:55:40 74° 288° (WNW) 06:00:58 436.925 FM
AO-7 24 May 05:54:37 06:02:34 44° 99° (E) 06:10:26 29.400 - 29.500 MHz
KITSAT 1 24 May 06:02:56 06:10:15 35° 28° (NNE) 06:17:33 435.175 FM
Gurwin Techsat 1B 24 May 06:13:28 06:18:17 36° 296° (WNW) 06:23:06 435.225 FM
Uosat F 24 May 06:14:06 06:18:25 29° 298° (WNW) 06:22:42 435.120 FM
AO-Echo 24 May 06:21:47 06:23:42 12° 306° (NW) 06:25:37 ?
PCSat 24 May 06:46:59 06:50:25 17° 105° (ESE) 06:53:52 145.825 MHz
ISS 24 May 06:53:01 06:56:21 64° 8° (N) 06:59:42 145.800 FM
STRAND 1 24 May 06:54:37 06:59:42 76° 256° (WSW) 07:04:51 ?
Saudisat 1A 24 May 07:04:08 07:08:42 68° 313° (NW) 07:13:20 436.775 MHz
Sapphire 24 May 07:18:35 07:23:09 29° 111° (ESE) 07:27:46 437.095 MHz 1200 baud AX-25 AFSK
TMSAT-1 24 May 07:31:57 07:34:45 15° 308° (NW) 07:37:33 436.925 FM
AO-7 24 May 07:47:30 07:55:33 54° 300° (WNW) 08:03:35 29.400 - 29.500 MHz
KITSAT 1 24 May 07:58:34 08:06:46 87° 53° (NE) 08:14:55 435.175 FM
SO-67 24 May 08:05:07 08:06:52 13° 89° (E) 08:08:36 435.3500 MHz FM
JAS-1B 24 May 08:21:23 08:26:32 28° 91° (E) 08:31:21 435.800 - 435.900 CW/SSB
Hamsat 24 May 08:22:02 08:26:21 60° 101° (E) 08:30:41 145.90 MHz
PCSat 24 May 08:27:42 08:33:08 88° 305° (NW) 08:38:36 145.825 MHz
ISS 24 May 08:29:48 08:33:03 48° 208° (SSW) 08:36:18 145.800 FM
STRAND 1 24 May 08:38:09 08:39:49 11° 275° (W) 08:41:28 ?
Saudisat 1A 24 May 08:45:49 08:49:14 20° 335° (NNW) 08:52:40 436.775 MHz
SO-50 24 May 08:52:46 08:57:08 36° 119° (ESE) 09:01:27 436.795 FM
Sapphire 24 May 09:00:59 09:06:18 57° 311° (NW) 09:11:41 437.095 MHz 1200 baud AX-25 AFSK
JAS-2 24 May 09:17:11 09:18:19 10° 76° (ENE) 09:19:26 435.800 - 435.900 CW/SSB, 435.910 FM
MaSat-1 24 May 09:31:09 09:32:31 12° 29° (NNE) 09:33:48 437.345 MHz
SO-67 24 May 09:37:09 09:40:41 54° 287° (WNW) 09:44:11 435.3500 MHz FM
AO-7 24 May 09:41:30 09:46:36 18° 324° (NW) 09:51:43 29.400 - 29.500 MHz
KITSAT 1 24 May 09:54:53 10:01:16 26° 255° (WSW) 10:07:39 435.175 FM
HO-68 24 May 09:55:20 10:01:19 28° 92° (E) 10:07:15 435.675 MHz FM
Hamsat 24 May 09:59:01 10:02:03 19° 299° (WNW) 10:05:06 145.90 MHz
ISS 24 May 10:08:28 10:09:08 10° 226° (SW) 10:09:47 145.800 FM
JAS-1B 24 May 10:11:42 10:17:42 51° 295° (WNW) 10:23:10 435.800 - 435.900 CW/SSB
PCSat 24 May 10:12:55 10:17:19 24° 327° (NNW) 10:21:44 145.825 MHz
Oscar 11 24 May 10:24:53 10:28:17 22° 92° (E) 10:31:41 145.825 FM, Beacon 2401.500 USB
Saudisat 1A 24 May 10:28:39 10:30:40 13° 359° (N) 10:32:40 436.775 MHz
SO-50 24 May 10:33:11 10:37:44 44° 319° (NW) 10:42:14 436.795 FM
Sapphire 24 May 10:47:09 10:50:56 19° 335° (NNW) 10:54:43 437.095 MHz 1200 baud AX-25 AFSK
JAS-2 24 May 10:58:17 11:05:13 57° 99° (E) 11:11:17 435.800 - 435.900 CW/SSB, 435.910 FM
MaSat-1 24 May 11:11:56 11:15:35 74° 57° (ENE) 11:18:29 437.345 MHz
HO-68 24 May 11:42:30 11:49:38 71° 292° (WNW) 11:56:45 435.675 MHz FM
UOSAT-12 24 May 11:44:02 11:48:13 38° 120° (ESE) 11:52:26 437.025 FM, 437.400 FM
OPAL 24 May 11:44:34 11:49:27 50° 102° (ESE) 11:54:16 ?
PCSat 24 May 12:00:25 12:02:48 13° 353° (N) 12:05:10 145.825 MHz
Oscar 11 24 May 12:00:34 12:04:45 46° 291° (WNW) 12:08:56 145.825 FM, Beacon 2401.500 USB
JAS-1B 24 May 12:04:57 12:06:46 11° 320° (NW) 12:08:31 435.800 - 435.900 CW/SSB
Saudisat 1A 24 May 12:08:50 12:12:08 19° 24° (NNE) 12:15:23 436.775 MHz
SO-50 24 May 12:16:33 12:19:31 16° 342° (NNW) 12:22:28 436.795 FM
ITAMSAT 1 24 May 12:16:45 12:17:21 10° 48° (NE) 12:17:56 435.822 SSB
Sapphire 24 May 12:34:27 12:36:38 12° 1° (N) 12:38:50 437.095 MHz 1200 baud AX-25 AFSK
JAS-2 24 May 12:43:42 12:49:54 34° 302° (WNW) 12:55:30 435.800 - 435.900 CW/SSB, 435.910 FM
Oscar 19 24 May 12:52:56 12:56:50 22° 58° (ENE) 13:00:45 437.125 CW, 437.150 USB
Uribyol 2 24 May 12:53:38 12:57:21 20° 57° (ENE) 13:01:05 436.500 FM
OPAL 24 May 13:23:55 13:28:08 28° 302° (WNW) 13:32:18 ?
UOSAT-12 24 May 13:24:08 13:28:24 40° 320° (NW) 13:32:44 437.025 FM, 437.400 FM
Oscar 16 24 May 13:31:15 13:36:13 48° 67° (ENE) 13:41:13 437.025 USB, Beacon 2401.1428
HO-68 24 May 13:31:24 13:36:12 20° 314° (NW) 13:41:01 435.675 MHz FM
AO-27 24 May 13:44:38 13:49:34 47° 67° (ENE) 13:54:32 436.795 MHz FM
PCSat 24 May 13:45:19 13:48:37 16° 20° (NNE) 13:51:54 145.825 MHz
Saudisat 1A 24 May 13:48:10 13:52:44 62° 46° (NE) 13:57:12 436.775 MHz
ITAMSAT 1 24 May 13:50:44 13:55:43 51° 68° (ENE) 14:00:46 435.822 SSB
SO-50 24 May 13:59:47 14:02:01 13° 7° (N) 14:04:14 436.795 FM
Uosat F 24 May 14:16:15 14:19:28 17° 55° (NE) 14:22:41 435.120 FM
Sapphire 24 May 14:18:21 14:22:18 20° 27° (NNE) 14:26:15 437.095 MHz 1200 baud AX-25 AFSK
AO-Echo 24 May 14:20:27 14:24:43 33° 65° (ENE) 14:28:56 ?
Gurwin Techsat 1B 24 May 14:21:33 14:24:54 17° 55° (NE) 14:28:16 435.225 FM
RS-15 24 May 14:29:41 14:32:21 11° 90° (E) 14:35:00 29.354 - 29.394 USB, Beacon 29.352 USB
Oscar 19 24 May 14:30:33 14:35:44 68° 257° (WSW) 14:40:57 437.125 CW, 437.150 USB
Uribyol 2 24 May 14:31:08 14:36:19 75° 256° (WSW) 14:41:33 436.500 FM
UOSAT-12 24 May 15:07:05 15:09:47 15° 344° (NNW) 15:12:31 437.025 FM, 437.400 FM
AO-7 24 May 15:08:20 15:14:44 26° 45° (NE) 15:21:10 29.400 - 29.500 MHz
Oscar 16 24 May 15:11:22 15:15:48 28° 266° (W) 15:20:17 437.025 USB, Beacon 2401.1428
AO-27 24 May 15:24:52 15:29:18 29° 266° (W) 15:33:48 436.795 MHz FM
PCSat 24 May 15:28:22 15:33:32 42° 44° (NE) 15:38:40 145.825 MHz
Saudisat 1A 24 May 15:28:32 15:32:04 22° 246° (WSW) 15:35:32 436.775 MHz
ITAMSAT 1 24 May 15:31:14 15:35:31 26° 267° (W) 15:39:51 435.822 SSB
TMSAT-1 24 May 15:36:16 15:41:13 43° 66° (ENE) 15:46:13 436.925 FM
SO-50 24 May 15:40:20 15:44:13 26° 31° (NNE) 15:48:01 436.795 FM
Uosat F 24 May 15:52:39 15:57:40 84° 255° (WSW) 16:02:43 435.120 FM
Gurwin Techsat 1B 24 May 15:58:52 16:04:11 88° 74° (ENE) 16:09:33 435.225 FM
AO-Echo 24 May 15:59:06 16:03:31 35° 263° (W) 16:07:52 ?
Sapphire 24 May 16:01:24 16:06:50 63° 50° (NE) 16:12:13 437.095 MHz 1200 baud AX-25 AFSK
Uribyol 2 24 May 16:15:03 16:16:44 11° 275° (W) 16:18:26 436.500 FM
Oscar 19 24 May 16:15:24 16:16:06 10° 277° (W) 16:16:47 437.125 CW, 437.150 USB
RS-15 24 May 16:30:27 16:41:44 50° 114° (ESE) 16:52:33 29.354 - 29.394 USB, Beacon 29.352 USB
UOSAT-12 24 May 16:49:38 16:51:50 13° 8° (N) 16:54:02 437.025 FM, 437.400 FM
AO-7 24 May 16:58:09 17:06:27 82° 68° (ENE) 17:14:49 29.400 - 29.500 MHz
PCSat 24 May 17:11:54 17:17:01 43° 245° (WSW) 17:22:06 145.825 MHz
TMSAT-1 24 May 17:16:34 17:21:17 32° 265° (W) 17:26:03 436.925 FM
SO-50 24 May 17:20:44 17:25:20 75° 233° (SW) 17:29:49 436.795 FM
JAS-1B 24 May 17:24:29 17:27:54 13° 43° (NE) 17:31:07 435.800 - 435.900 CW/SSB
Uosat F 24 May 17:35:08 17:37:16 13° 274° (W) 17:39:25 435.120 FM
Gurwin Techsat 1B 24 May 17:41:55 17:44:55 15° 273° (W) 17:47:56 435.225 FM
Sapphire 24 May 17:45:28 17:49:52 26° 250° (WSW) 17:54:16 437.095 MHz 1200 baud AX-25 AFSK
Hamsat 24 May 17:48:11 17:49:12 11° 55° (NE) 17:50:12 145.90 MHz
UOSAT-12 24 May 18:29:36 18:33:32 27° 32° (NNE) 18:37:27 437.025 FM, 437.400 FM
RS-15 24 May 18:42:05 18:53:57 66° 319° (NW) 19:05:18 29.354 - 29.394 USB, Beacon 29.352 USB
SO-67 24 May 18:46:29 18:47:32 11° 59° (ENE) 18:48:36 435.3500 MHz FM
HO-68 24 May 18:48:27 18:49:18 10° 33° (NNE) 18:50:09 435.675 MHz FM
AO-7 24 May 18:53:27 19:00:10 27° 269° (W) 19:06:57 29.400 - 29.500 MHz
STRAND 1 24 May 19:01:19 19:05:38 27° 93° (E) 19:09:57 ?
SO-50 24 May 19:03:42 19:05:07 11° 252° (WSW) 19:06:32 436.795 FM
JAS-1B 24 May 19:08:48 19:17:02 48° 64° (ENE) 19:24:01 435.800 - 435.900 CW/SSB
Hamsat 24 May 19:20:17 19:24:30 74° 74° (ENE) 19:28:47 145.90 MHz
JAS-2 24 May 19:33:17 19:37:01 14° 42° (NE) 19:40:41 435.800 - 435.900 CW/SSB, 435.910 FM
UOSAT-12 24 May 20:09:33 20:14:09 72° 233° (SW) 20:18:44 437.025 FM, 437.400 FM
SO-67 24 May 20:16:53 20:20:28 77° 258° (WSW) 20:24:04 435.3500 MHz FM
HO-68 24 May 20:28:41 20:34:58 35° 56° (ENE) 20:41:16 435.675 MHz FM
STRAND 1 24 May 20:40:08 20:45:06 50° 292° (WNW) 20:50:03 ?
RS-15 24 May 20:58:09 21:08:50 39° 350° (N) 21:19:05 29.354 - 29.394 USB, Beacon 29.352 USB
JAS-1B 24 May 20:59:02 21:07:37 49° 261° (W) 21:14:55 435.800 - 435.900 CW/SSB
Hamsat 24 May 20:59:06 21:01:08 13° 273° (W) 21:03:11 145.90 MHz
JAS-2 24 May 21:12:56 21:20:19 47° 63° (ENE) 21:27:35 435.800 - 435.900 CW/SSB, 435.910 FM
Oscar 11 24 May 21:24:24 21:28:11 30° 65° (ENE) 21:31:59 145.825 FM, Beacon 2401.500 USB
OPAL 24 May 21:26:18 21:30:30 26° 58° (ENE) 21:34:40 ?
UOSAT-12 24 May 21:52:11 21:53:30 11° 252° (WSW) 21:54:49 437.025 FM, 437.400 FM

Developed and maintained by Chris Peat, Heavens-Above GmbH. Please read the updated FAQ before sending e-mail. Imprint. DLR
